星链-3105 (STARLINK-3105 )

导读 | 星芒AI

STARLINK-3105 是 SpaceX 星链计划中的一颗低轨通信卫星,属于星链第三代组网卫星。该卫星旨在为全球用户提供高速、低延迟的互联网服务,尤其服务于网络基础设施薄弱的地区。它运行在约 550 公里的近地轨道,采用先进通信技术,支持宽带数据传输。作为星链系统的重要组成部分,STARLINK-3105 有助于提升全球互联网覆盖范围和连接质量。

基本信息
目录编号:
49440
目录名称:
STARLINK-3105
国际标识:
2021-104AJ
轨道中心:
EARTH
卫星名称:
星链-3105
卫星全名:
星链-3105 (STARLINK-3105 )
卫星状态:
在轨 (已飞行1497 天)
发射日期:
2021-11-13 UTC
国别 :
美国 (US)
星等 :
--
轨道信息
数据来源 国际轨道数据 AOE轨道数据
星历时间 2025-12-19T08:10:57+0800
21小时前
查看轨道信息
2025-12-18T20:00:00+0800
1天前
查看轨道信息
半长轴 6917.874km 6917.957km
偏心率 0.0001676 0.000182
轨道倾角 53.216° 53.217°
近地点辐角 88.398° 79.408°
升交点赤经 211.315° 213.597°
平近点角 271.721° 41.932°
近地点 538.577km 538.562km
远地点 540.897km 541.082km
周期 95.437分钟 95.439分钟
每日圈数 15.088421 15.088152
详细信息
固有亮度:
5
最大亮度:
2.5
卫星平台:
Starlink v1.5
覆盖范围:
全球
运营商:
太空探索技术公司
运营商所在国:
美国
制造商(研发单位):
太空探索技术公司
制造商所在国:
美国
使用方式:
暂无
卫星简介
星链(Starlink)计划是由太空探索技术公司(SpaceX)提出的一个巨型低轨卫星互联网星座项目,计划在2019年至2024年间在太空搭建由约1.2万颗卫星组成的“星链”网络,其中1584颗将部署在地球上空550千米处的近地轨道,并从2020年开始工作。该卫星仍在工作。
2D轨道图
3D轨道图
轨道高度分析图
轨道倾角分析图
轨道综合分析图
查看轨道综合分析图